Regional Weather Roundup
Issued by NWS Cleveland, OH

Home | Current Version | Previous Version | Graphics & Text | Print | Product List | Glossary On
Versions: 1 2 3 4 5 6 7 8 9 10 11 12 13 14 15 16 17 18 19 20 21 22 23 24 25 26 27 28 29 30 31 32 33 34 35 36 37 38 39 40 41 42 43 44 45 46 47 48 49 50
000
ASUS41 KCLE 020600
RWRCLE
OHIO REGIONAL WEATHER ROUNDUP
NATIONAL WEATHER SERVICE WILMINGTON, OH
200 AM EDT THU OCT 02 2014

NOTE: "FAIR" INDICATES FEW OR NO CLOUDS BELOW 12,000 FEET WITH NO
SIGNIFICANT WEATHER AND/OR OBSTRUCTIONS TO VISIBILITY.

OHZ001>008-015>018-024>027-034-035-043-044-020700-
   NORTHWEST OHIO

CITY           SKY/WX    TMP DP  RH WIND       PRES   REMARKS
DEFIANCE       CLEAR     53  50  89 CALM      30.02S FOG
FINDLAY        CLEAR     53  50  89 SE5       30.02F
TOLEDO EXPRESS CLEAR     53  53 100 CALM      30.03S FOG
TOLEDO METCALF FOG       52  51  97 CALM      30.04S VSB 1/4
LIMA           CLEAR     56  50  80 SE8       30.02F
$$

OHZ009>014-019>023-028>033-038-089-020700-
   NORTHEAST OHIO

CITY           SKY/WX    TMP DP  RH WIND       PRES   REMARKS
CLE-HOPKINS    PTCLDY    52  51  97 SW3       30.08R FOG
CLE-LAKEFRONT  CLEAR     58  55  90 S5        30.05R
CUY CO. ARPT   NOT AVBL
LORAIN-ELYRIA  FOG       53  51  93 CALM      30.07R VSB 1/4
ASHTABULA      FOG       54  54 100 SE3       30.06S VSB 1/4
AKRON-CANTON   CLEAR     55  51  86 CALM      30.06R FOG
WOOSTER        NOT AVBL
MANSFIELD      FOG       47  47 100 E5        30.05F VSB 1/2
YOUNGSTOWN     MOCLDY    50  49  96 CALM      30.06S FOG
$$

OHZ042-051>053-060>062-070>072-077>081-020700-
  SOUTHWEST OHIO

CITY           SKY/WX    TMP DP  RH WIND       PRES   REMARKS
CINC-COVINGTON CLEAR     63  51  65 E3        30.00F
CINC-LUNKEN    CLEAR     53  52  96 CALM      30.02S
HAMILTON       CLEAR     50  49  96 CALM      30.02S
DAYTON         NOT AVBL
WRIGHT-PAT AFB CLEAR     53  48  84 NE3       30.03S
DAYTON GENERAL CLEAR     57  47  69 E7        30.02S
WILMINGTON     CLEAR     54  44  69 E6        30.03S
$$

OHZ036-037-039>041-045>050-054>059-063>069-073>076-082>088-020700-
  CENTRAL AND SOUTHEAST OHIO

CITY           SKY/WX    TMP DP  RH WIND       PRES   REMARKS
COLUMBUS       CLEAR     53  49  86 CALM      30.04S
OSU AIRPORT    CLEAR     51  49  92 E3        30.04S FOG
BOLTON FIELD   NOT AVBL
RICKENBACK AFB NOT AVBL
NEWARK         FOG       45  44  97 CALM      30.05F VSB 1/4
MARION         CLEAR     48  46  93 MISG      30.05S FOG
LANCASTER      CLEAR     47  44  90 CALM      30.05S FOG
ZANESVILLE     FOG       47  45  93 CALM      30.05S VSB 1/4
NEW PHILLY     FOG       51  51 100 CALM      30.06S VSB 1/4
$$


USA.gov is the U.S. government's official web portal to all federal, state and local government web resources and services.